METEOR 2-17 DEB, 35367

Orbit data source: Space-Track

METEOR 2-17 DEB, 35367 is space debris in LEO originally from a launch on Sat, 30 Jan 1988 UTC launched from the Plesetsk Missile And Space Complex (PKMTR). Debris objects in space refer to the collection of defunct objects orbiting the Earth. Examples of debris include non-operational satellites, rocket bodies, and fragments generated from explosions, collisions, or faulty payload assembly.

Loading next visibility...
Identifier
35367, 1988-005AB
Orbit
LEO
Last TLE update
4 days ago
Origin
Manufacturer
Unknown
Mission
Spacecraft
Bus & Motor
Unknown
Mass
Unknown
Launch date (UTC)
1988-01-30 (37 years ago)
Launch vehicle
Unknown
Launch site
Plesetsk Missile And Space Complex (PKMTR)
Object type
Payload
Rocket body
Debris
Shape & HBR
Unknown
Radar Cross Section
Small (<0.1 m²)

Expand to show TLE details & history

TLE from 4 days ago
0 METEOR 2-17 DEB
1 35367U 88005AB  25125.09799787  .00001678  00000-0  11682-2 0  9998
2 35367  82.5225 237.6808 0009515  76.7939 101.7947 13.98161453276639
Epoch: 2025-05-05T02:21Z
Definitive object data (Epoch: 2025-05-05T02:21:07.015Z)
Latitude
1.18507°
Longitude
159.03039°
Altitude
904.366 km
Speed
7.399 km/s
True Right ascension
03h 50m 06s
True Declination
1° 10' 41"
Sunlit
Object was in daylight at TLE epoch
Visualization TLE readout
Latitude
1.93627°
Longitude
-24.03558°
Altitude
899.607 km
Speed
7.404 km/s
Apparent Right ascension
13h 45m 34s
Apparent Declination
-52° 42' 58"
Sunlit
Object is in full shadow
Visualization observer readout
Local Sidereal Time
16:42:50
Azimuth
205.472° SW
Elevation
-10.26°
Doppler factor
1
Orbital elements
Apogee altitude
904.225 km
Perigee altitude
890.38 km
Semi-major axis
7,275.439 km
Eccentricity
0.0009515
Inclination
82.5225°
RAAN
237.6808°
Arg. of periapsis
76.7939°
True anomaly
101.90141°
Mean anomaly
101.7947°
Eccentric anomaly
101.84806°
Mean motion
3.49747 °/min
BSTAR
0.0011682
Orbital period
102.93 mins
Loading maneuver chart data...
Loading SW <> Apogee altitude chart data...
Loading historical data...
Loading historical data...
Loading historical data...
Loading historical data...
Loading historical data...
Loading historical data...
Loading historical data...

METEOR 2-17 DEB Visibility forecast

Observer location: undefined°, undefined°

Span
Click to sort rows by Start time (UTC) header in descending order
Start Az.
Max El. time (UTC)
Max El. Az.
Max El.
End time (UTC)
End Az.
9 mins2025-05-09 08:40:39.166Z226.074° WSW2025-05-09 08:44:39.166Z275.36° WNW28.036°2025-05-09 08:49:39.166Z344.762° N
7 mins2025-05-09 17:44:39.166Z35.487° NE2025-05-09 17:47:39.166Z75.661° E21.016°2025-05-09 17:51:39.166Z120.632° SE
9 mins2025-05-09 19:27:39.166Z333.226° NNW2025-05-09 19:31:39.166Z260.776° W36.401°2025-05-09 19:36:39.166Z197.233° SSW
8 mins2025-05-10 07:00:39.166Z146.369° SSE2025-05-10 07:03:39.166Z101.194° ESE31.905°2025-05-10 07:08:39.166Z26.777° NE
|